{"data":{"norad_id":54853,"epoch":"2026-05-25T03:08:52.509120Z","epoch_age_seconds":59566,"freshness":"FRESH","line1":"1 54853U 22177AK  26145.13116330 -.00001134  00000+0 -31693-4 0  9996","line2":"2 54853  43.0066  49.6861 0001384 249.8670 110.2033 15.27559995188781","mean_motion":15.27559995,"eccentricity":0.0001384,"inclination_deg":43.0066,"raan_deg":49.6861,"arg_perigee_deg":249.867,"mean_anomaly_deg":110.2033,"bstar":-3.1693e-5,"rev_number":18878,"period_min":94.267983235578,"perigee_km":482.15940241391,"apogee_km":484.05859530639,"semimajor_km":6861.2459988601,"source":"CELESTRAK","updated_at":"2026-05-25T13:38:17.726163Z"}}